Weather in Kovalevo

Russia / Voronezh Oblast     50°53′02″N   39°23′45″E
temp.,
°C
wind,
m/s
gust,
m/s
humid.,
%
clouds,
%
prec.,
mm/h
press.,
hPa
HPBL,
m
25 february, thu
thu2500:00−12ssw5994100 0.6 1036390
03:00−12ssw51194100 1.0 1034382
06:00−10sw61191100 0.2 1031419
09:00−8sw61191100 0.2 1029378
12:00−4sw71192100 0.1 1027435
15:00−2sw81493100 0.2 1023412
18:00+1wsw81594100 0.5 1021489
21:00+2w61398100 1.1 1020303
26 february, fri
fri2600:00+2w51399100 0.2 1019328
03:00+2w51199100 0.5 1020271
06:00+1w41099100 0.1 1019227
09:00+2w410100100 0.3 1018253
12:00+2w511100100 0.0 1017327
15:00+3w71498100 0.0 1016449
18:00+3w61498100 0.2 1013387
21:00+2w51497100 0.3 1013381
27 february, sat
sat2700:00+2w51296100 0.0 1011453
03:00+1w41196100 0.0 1011420
06:00+1w51195100 0.0 1009417
09:00+1w51195100 0.1 1008473
12:00+1w61197100 0.1 1007584
15:00+1w61198100 0.3 1007608
18:00+1w51098100 0.1 1006492
21:000w51098100 0.2 1007472
28 february, sun
sun2800:000wnw51193100 0.1 1007576
03:00−4n61081100 0.4 1010776
06:00−7nnw7978100 0.1 1013781
09:00−8nnw6977100 0.1 1015746
12:00−7nnw6875100 0.0 1017742
15:00−6nnw6873100 0.1 1018759
18:00−6nnw5878100 0.0 1019724
21:00−7n5882100 0.0 1022663
1 march, mon
mon100:00−8n4784100 0.0 1023623
03:00−8nnw378794 0.0 1025525
06:00−8nnw378976 0.0 1026477
09:00−8n478477 0.0 1028534
12:00−6n4676100 0.0 1029586
15:00−4nnw467388 0.0 1030632
18:00−4nw368317 0.0 1030346
21:00−5wnw36919 0.0 1031210